GEFSNE_500_meanwind_018.txt.gz
Wind_Speed
57 57 56 56 57 57 57 58 60 60 60 58 58 58 58 56 55 55 55 54 54 54 54 55 55 55 56 57 57 57 58 59 61 62 62 63 63 61
50 52 53 54 55 56 57 58 59 61 61 59 58 57 57 56 54 53 54 53 52 52 52 52 53 53 53 54 55 55 57 58 59 61 62 62 63 63
46 49 50 51 52 52 54 56 57 58 59 59 59 58 57 55 53 52 51 51 50 49 48 48 48 49 50 51 51 53 54 56 58 59 61 63 63 64
46 48 49 49 50 50 51 52 54 56 57 57 56 55 54 52 50 50 49 48 47 46 45 44 45 45 46 46 48 50 52 54 56 58 61 63 65 67
45 46 47 48 48 48 49 50 52 54 54 54 53 52 51 49 48 48 47 46 45 44 43 43 43 43 43 44 46 48 51 53 55 57 60 62 66 69
44 44 44 44 45 46 47 48 49 50 50 50 49 49 48 47 46 45 45 45 44 43 43 42 42 42 42 43 44 46 48 50 51 53 55 58 62 67
42 40 40 40 41 42 43 44 46 46 46 46 45 44 44 44 43 43 44 44 43 43 43 42 42 42 42 42 42 44 45 46 47 48 49 51 54 58
39 38 38 38 38 38 39 41 42 43 43 44 43 43 42 41 40 41 41 42 42 43 43 42 43 42 42 42 42 42 42 44 45 46 46 48 49 52
38 38 38 36 35 36 37 39 40 42 43 44 42 42 41 40 40 40 40 41 42 43 43 43 44 44 44 43 43 43 43 43 44 45 45 46 47 49
37 37 36 35 34 35 36 38 40 42 43 44 44 43 42 42 42 41 41 42 43 44 45 45 46 45 45 45 45 44 43 42 42 43 44 45 46 47
35 34 34 34 33 34 35 37 40 42 43 44 44 44 43 43 43 43 43 43 44 46 46 46 47 47 47 47 47 45 44 43 42 43 43 43 44 45
34 33 33 34 34 34 35 36 38 40 41 43 44 44 44 45 45 45 45 46 46 47 48 48 48 48 48 48 48 47 46 44 42 42 41 41 41 42
34 32 33 33 34 34 35 36 38 39 40 42 43 44 45 46 46 47 47 47 48 49 49 49 49 49 48 48 49 49 47 45 43 41 40 40 39 39
35 34 34 34 34 34 35 36 37 39 41 42 44 45 46 47 48 48 49 49 50 50 51 50 50 50 50 49 48 48 48 47 44 41 39 38 36 35
39 39 38 38 37 37 36 36 36 38 40 43 45 47 48 49 50 51 51 51 51 52 52 52 52 52 51 51 49 48 48 48 47 43 39 35 33 32
45 45 45 43 43 42 41 40 39 39 40 42 44 47 49 51 52 53 53 53 53 53 54 54 53 53 52 51 50 49 49 48 48 45 40 35 31 29
52 52 52 51 50 49 48 47 46 45 45 45 46 48 50 51 53 54 54 54 54 54 54 54 54 53 53 52 51 50 49 48 48 46 42 36 32 29
57 58 58 58 57 56 55 54 53 52 51 50 50 50 51 52 53 54 55 55 54 54 54 54 54 53 52 51 51 50 49 49 48 47 44 40 35 32
62 62 63 63 63 62 62 61 60 58 57 56 55 55 54 54 54 54 54 54 54 53 53 53 53 53 52 50 49 50 49 50 49 48 46 43 38 36
65 66 66 67 67 67 66 66 65 64 63 61 60 59 58 57 56 56 55 55 54 53 53 53 54 53 52 50 48 48 50 50 50 49 48 46 42 40
69 69 70 70 70 70 69 69 68 67 66 65 64 63 62 61 60 59 58 57 56 55 54 54 55 54 53 51 49 48 49 50 49 49 49 48 46 44
74 74 74 74 74 74 73 72 71 70 69 69 67 66 65 64 63 61 60 59 58 56 55 54 54 54 53 52 50 49 49 51 51 50 49 49 48 47
76 78 79 79 79 78 78 77 75 74 73 72 71 70 68 67 65 64 63 61 59 58 56 55 55 54 53 52 50 49 48 50 52 52 51 51 50 49

GEFSNE_500_meanwind_024.txt.gz
Wind_Speed
56 59 62 65 66 67 68 68 68 68 68 67 67 66 65 65 65 65 65 65 65 65 64 63 63 62 60 60 60 60 61 61 61 61 60 60 58 57
50 50 53 55 58 60 61 63 65 66 66 66 66 65 64 64 64 63 63 63 63 63 63 62 61 60 59 59 59 59 60 60 61 61 61 60 60 59
49 48 49 50 53 55 58 60 61 62 62 63 64 63 63 63 62 62 61 61 61 61 61 60 59 58 57 57 57 58 59 60 60 60 60 60 60 59
49 48 49 50 51 53 54 56 58 60 60 61 62 63 63 63 62 62 61 61 60 60 59 59 58 57 57 57 58 58 59 59 60 60 60 60 60 59
50 50 51 52 53 53 54 55 57 58 58 59 60 61 62 61 61 61 61 61 60 60 59 59 58 58 58 59 59 59 59 59 59 60 60 59 58 57
51 50 49 49 51 52 53 53 54 54 54 55 56 57 58 59 59 60 60 61 61 61 61 60 60 60 59 59 59 59 58 58 57 56 56 55 54 54
47 47 48 48 48 49 50 50 50 50 50 51 53 54 56 57 58 58 59 59 61 61 61 61 61 60 60 59 59 59 57 56 54 53 52 50 50 50
42 44 46 46 46 46 47 48 47 48 49 50 52 54 55 56 57 58 58 58 59 59 60 60 61 61 61 60 59 58 55 53 52 50 48 46 46 46
41 42 43 45 46 46 46 46 47 47 48 49 51 53 54 55 56 57 57 58 57 57 57 57 58 58 58 57 56 55 53 51 50 48 47 46 45 44
40 40 41 43 45 46 45 45 46 46 47 48 50 51 52 53 55 55 56 57 56 55 54 54 54 54 54 54 52 51 50 49 49 48 47 46 45 44
40 40 41 42 44 44 45 45 45 46 46 47 48 49 50 51 52 54 54 54 53 52 52 51 51 51 51 50 49 48 48 48 48 48 47 46 45 44
40 41 42 43 43 44 44 44 44 45 46 47 47 48 48 48 49 50 50 50 50 49 48 47 47 47 47 47 47 47 47 47 48 48 47 47 46 45
39 41 42 43 44 43 43 43 44 44 45 46 46 46 45 45 46 46 47 47 47 47 45 45 44 44 45 45 45 46 47 47 48 48 47 47 47 47
39 41 42 43 44 44 43 43 43 43 43 44 44 44 43 43 44 44 44 44 45 45 45 44 44 44 43 43 44 46 47 47 48 48 48 48 48 48
42 42 43 44 45 45 44 43 43 43 43 43 43 44 43 43 43 44 43 44 44 45 46 46 45 45 44 43 44 46 47 48 48 48 49 49 49 49
46 46 45 45 45 45 45 45 44 43 43 43 43 43 43 43 43 43 44 44 44 44 45 45 45 46 46 46 45 46 48 49 50 50 50 51 51 51
50 50 50 50 49 48 48 47 46 45 44 43 43 43 43 43 43 44 44 44 44 45 45 45 44 44 45 46 47 47 48 50 51 52 52 52 53 53
53 53 54 54 54 53 52 51 50 48 47 45 44 43 43 43 43 43 43 43 43 43 43 43 43 44 45 45 47 48 49 50 51 52 53 53 53 54
55 56 56 57 57 57 57 56 55 53 52 50 49 47 46 45 45 44 43 43 42 41 41 41 41 42 43 45 46 49 50 50 51 52 53 53 53 53
59 59 60 60 60 60 61 61 60 59 58 56 55 53 52 50 49 48 47 46 45 44 43 43 42 42 43 43 45 49 51 51 52 53 53 54 53 53
58 61 63 64 64 64 64 64 64 64 63 62 61 60 58 57 55 54 52 51 50 48 47 46 45 44 44 44 45 47 49 51 51 52 52 53 52 52
46 53 59 64 66 68 68 68 67 67 67 67 66 65 64 63 62 60 59 58 56 54 53 52 50 49 47 47 46 47 48 50 50 50 51 51 50 49
35 40 47 54 61 66 69 71 71 71 71 70 70 70 69 68 67 65 64 63 62 60 58 57 56 54 52 51 49 48 48 48 48 48 49 49 48 46

GEFSNE_500_meanwind_030.txt.gz
Wind_Speed
71 74 77 78 79 80 82 84 85 83 81 79 77 76 74 72 70 67 66 64 62 62 61 61 61 61 62 61 60 59 58 57 56 55 54 53 52 51
62 66 66 66 65 67 72 75 78 81 81 80 79 78 77 75 73 71 70 70 68 67 65 65 64 64 64 63 62 62 61 60 60 59 58 58 56 55
49 53 55 55 56 57 60 63 66 70 74 76 75 76 76 76 76 76 76 74 73 72 71 70 69 69 68 67 66 65 65 65 64 63 62 61 60 60
39 44 48 51 53 55 55 56 57 58 62 66 69 71 72 75 76 76 77 77 76 76 75 74 74 73 73 73 72 70 69 68 67 66 66 66 65 64
37 42 46 48 50 52 53 54 54 53 54 57 60 64 66 69 72 74 75 75 76 76 76 75 75 74 74 74 73 72 72 70 70 68 67 66 66 66
37 40 44 46 49 49 49 51 52 52 52 53 55 57 60 62 65 68 70 71 72 72 72 71 71 71 71 71 72 71 71 70 69 68 67 66 65 65
37 41 44 47 50 49 47 47 50 51 51 51 52 53 54 56 58 61 63 65 66 66 67 67 67 68 68 68 68 67 67 66 66 66 66 65 64 64
35 39 42 47 49 49 48 47 47 49 50 51 51 52 52 53 55 57 58 60 61 61 63 64 64 64 64 64 64 64 64 64 64 64 64 64 64 64
35 36 39 42 46 47 48 48 47 47 49 49 51 52 52 52 53 54 55 56 57 58 60 61 62 63 63 63 63 63 63 63 63 62 62 62 63 63
37 36 37 39 42 44 45 47 47 47 47 49 49 50 52 53 53 53 53 53 54 55 57 58 58 59 60 60 61 61 62 62 62 62 62 63 63 62
38 38 39 39 41 43 44 46 47 48 48 49 50 50 50 50 50 51 52 51 52 52 53 53 53 54 54 55 56 58 59 60 61 61 62 62 62 62
39 39 40 40 41 42 44 45 47 48 49 49 51 51 50 49 49 50 51 51 51 50 50 50 50 51 51 51 53 54 56 57 59 59 60 60 60 60
41 41 41 41 42 43 44 46 48 49 50 50 51 51 51 50 50 50 50 50 50 50 50 49 50 50 50 51 51 52 54 55 55 56 58 58 58 57
43 43 43 43 43 44 45 46 48 49 50 51 51 51 51 51 51 51 50 50 50 50 49 49 49 50 50 50 51 51 51 51 52 52 53 54 53 53
45 46 45 45 44 45 45 46 47 49 49 50 50 51 51 51 51 51 50 50 50 49 49 49 49 49 49 49 49 49 49 49 48 48 48 48 48 48
46 47 47 47 47 46 46 47 48 48 49 49 49 50 51 51 51 50 50 50 50 49 49 48 48 48 48 48 47 47 46 45 44 43 43 43 43 44
47 47 48 48 48 48 48 47 48 48 49 49 49 49 50 50 50 50 49 49 49 48 48 47 46 46 46 46 45 44 43 42 40 39 39 40 40 41
44 47 48 49 50 50 50 49 49 49 49 49 50 49 49 49 49 48 48 47 47 47 47 46 46 45 44 43 42 42 41 40 39 38 37 37 37 38
37 43 47 49 51 51 52 52 51 51 50 50 50 50 49 49 48 48 47 46 45 45 45 45 44 44 43 42 41 41 40 39 38 37 36 36 36 36
28 34 40 46 50 52 53 53 53 53 53 52 51 51 51 50 49 48 47 46 45 44 44 43 43 43 42 41 41 41 41 39 38 36 35 35 35 36
22 26 31 38 44 50 53 54 55 55 55 55 54 53 52 52 51 49 48 47 46 45 44 43 43 42 42 41 41 41 40 38 37 35 34 33 33 33
20 21 25 29 35 42 49 53 56 57 57 57 57 56 55 54 53 52 51 49 47 45 44 44 43 43 42 42 41 40 39 37 35 34 32 31 29 29
19 21 22 24 28 34 41 48 53 57 59 60 60 60 59 58 56 55 53 52 50 47 45 44 43 42 42 41 40 40 38 36 34 32 31 29 27 26

GEFSNE_500_meanwind_036.txt.gz
Wind_Speed
57 64 71 76 81 84 87 88 89 88 87 85 83 82 81 80 78 77 75 74 72 71 69 68 66 64 63 62 61 60 58 57 56 55 54 53 52 51
46 51 56 62 69 75 80 84 88 89 89 88 86 84 83 82 81 80 78 76 74 73 71 69 68 66 65 64 63 62 61 60 58 57 56 55 54 53
40 43 46 50 55 62 68 74 80 84 87 88 88 86 85 84 83 82 81 79 77 75 73 71 70 68 66 65 64 62 61 59 58 57 57 57 56 55
39 40 42 44 46 50 56 63 69 75 80 83 85 86 85 84 84 83 83 82 80 79 77 74 72 70 69 67 67 65 63 62 62 61 59 58 58 58
40 40 41 42 43 45 48 52 58 64 71 75 78 80 82 82 82 82 83 83 82 81 79 78 76 74 73 72 70 69 67 67 66 64 64 63 61 61
42 41 41 42 42 43 44 46 51 55 61 65 68 71 74 75 76 77 78 80 80 81 81 79 78 77 76 76 74 73 72 72 70 69 69 68 67 66
44 44 43 42 42 41 42 43 45 49 52 56 59 61 63 65 67 69 72 73 73 76 78 79 78 77 78 77 77 76 75 75 74 73 72 71 71 70
46 46 44 43 43 42 41 42 43 45 49 52 54 56 57 58 60 63 65 68 70 72 74 75 77 77 77 77 77 77 77 77 77 77 76 75 74 73
47 47 46 45 44 43 41 42 43 42 46 49 51 53 54 55 56 58 60 63 67 70 73 75 76 78 79 80 81 81 80 80 79 80 80 79 78 77
46 47 47 46 45 44 43 43 43 43 43 46 49 53 55 55 56 57 58 60 61 66 70 73 75 76 77 79 80 80 81 83 82 80 79 80 80 78
46 47 47 47 47 45 45 44 45 46 45 45 47 49 52 54 56 57 58 58 58 59 64 67 70 72 74 75 76 76 77 79 79 79 78 77 77 77
44 46 47 47 47 47 46 45 46 48 47 47 48 49 49 51 53 56 58 59 58 56 57 59 61 63 65 66 67 69 70 71 72 72 72 73 74 75
41 44 47 48 48 48 47 47 46 46 47 47 48 49 50 50 53 54 56 58 59 57 55 54 55 57 57 58 60 60 61 62 64 65 66 68 69 70
38 42 46 48 49 49 49 48 47 47 46 46 48 49 50 51 51 53 54 55 56 55 55 55 54 54 54 54 55 55 56 57 58 59 61 62 64 65
36 40 44 47 48 49 49 49 49 48 48 48 48 49 50 51 52 52 53 54 54 54 55 56 56 55 54 54 54 54 54 55 55 56 57 58 59 60
33 38 42 44 47 48 50 50 50 50 50 50 50 50 50 51 52 53 53 53 53 53 53 54 55 54 54 54 54 53 53 53 53 53 53 54 55 55
28 34 39 42 45 47 49 50 51 51 50 51 51 51 52 52 52 53 53 54 54 53 53 53 53 53 53 53 53 53 52 51 50 50 50 50 51 52
23 28 34 39 42 45 48 50 51 51 51 51 51 52 52 53 54 54 54 55 55 54 53 53 52 52 52 52 51 51 50 49 48 48 48 48 49 50
18 22 27 33 38 42 46 48 50 51 51 51 51 52 52 53 54 55 56 56 55 55 54 53 53 52 51 51 50 49 48 47 47 46 46 47 48 48
14 17 21 27 33 38 42 46 49 50 51 51 51 51 51 52 53 54 55 56 56 55 54 54 53 51 50 49 49 49 48 46 46 45 45 45 45 45
12 14 16 20 26 32 38 43 47 49 50 51 51 51 51 51 51 52 53 54 54 55 54 53 52 51 50 49 48 47 46 45 44 43 42 42 42 43
11 12 14 17 21 26 32 38 43 47 50 51 51 51 51 51 50 50 51 51 52 52 53 52 51 49 49 47 46 45 44 43 42 41 40 39 39 39
9 11 13 16 18 22 27 32 38 44 48 50 52 52 51 51 50 50 50 50 50 50 50 50 50 49 48 47 45 44 42 41 40 39 38 37 36 36